H1 CPF 1 NER 2013 6 24 9 6751 glonass114 H2 0806703 9114 33468 2013 6 24 0 0 0 2013 6 27 23 45 0 900 1 1 0 0 0 H9 10 0 56467 0.00000 0 20780019.689 -14130150.608 4360238.007 10 0 56467 900.00000 0 20157759.448 -13737381.034 7449335.695 10 0 56467 1800.00000 0 19301708.760 -13039257.769 10393676.919 10 0 56467 2700.00000 0 18266135.147 -12019243.883 13136084.673 10 0 56467 3600.00000 0 17109390.046 -10673077.621 15623328.484 10 0 56467 4500.00000 0 15891378.596 -9009201.773 17807155.658 10 0 56467 5400.00000 0 14670985.442 -7048665.582 19645223.581 10 0 56467 6300.00000 0 13503564.836 -4824502.625 21101915.466 10 0 56467 7200.00000 0 12438600.299 -2380610.165 22149024.346 10 0 56467 8100.00000 0 11517631.583 229823.968 22766292.927 10 0 56467 9000.00000 0 10772535.114 2946282.234 22941799.677 10 0 56467 9900.00000 0 10224229.164 5703185.277 22672184.401 10 0 56467 10800.00000 0 9881857.103 8432373.663 21962709.560 10 0 56467 11700.00000 0 9742482.075 11065701.606 20827156.441 10 0 56467 12600.00000 0 9791305.234 13537636.057 19287558.285 10 0 56467 13500.00000 0 10002397.820 15787754.474 17373775.329 10 0 56467 14400.00000 0 10339916.037 17763038.604 15122919.542 10 0 56467 15300.00000 0 10759747.557 19419869.806 12578639.635 10 0 56467 16200.00000 0 11211520.370 20725643.736 9790279.568 10 0 56467 17100.00000 0 11640889.457 21659937.757 6811926.158 10 0 56467 18000.00000 0 11992004.928 22215182.854 3701363.831 10 0 56467 18900.00000 0 12210057.459 22396812.405 518956.381 10 0 56467 19800.00000 0 12243793.330 22222881.943 -2673522.794 10 0 56467 20700.00000 0 12047892.458 21723176.126 -5814089.164 10 0 56467 21600.00000 0 11585108.320 20937840.695 -8841750.898 10 0 56467 22500.00000 0 10828078.544 19915597.131 -11697694.446 10 0 56467 23400.00000 0 9760728.702 18711615.324 -14326428.472 10 0 56467 24300.00000 0 8379208.823 17385133.894 -16676863.716 10 0 56467 25200.00000 0 6692321.799 15996928.417 -18703307.588 10 0 56467 26100.00000 0 4721424.172 14606734.128 -20366354.026 10 0 56467 27000.00000 0 2499801.919 13270731.469 -21633651.320 10 0 56467 27900.00000 0 71545.766 12039200.085 -22480533.040 10 0 56467 28800.00000 0 -2510028.298 10954439.723 -22890499.815 10 0 56467 29700.00000 0 -5184348.803 10049045.174 -22855542.700 10 0 56467 30600.00000 0 -7885867.942 9344607.386 -22376301.760 10 0 56467 31500.00000 0 -10546556.072 8850895.115 -21462056.699 10 0 56467 32400.00000 0 -13098508.566 8565551.102 -20130549.452 10 0 56467 33300.00000 0 -15476557.112 8474315.221 -18407641.858 10 0 56467 34200.00000 0 -17620777.075 8551764.833 -16326814.708 10 0 56467 35100.00000 0 -19478786.787 8762540.717 -13928517.534 10 0 56467 36000.00000 0 -21007743.078 9063006.384 -11259381.495 10 0 56467 36900.00000 0 -22175949.884 9403270.174 -8371310.563 10 0 56467 37800.00000 0 -22964012.997 9729484.014 -5320468.753 10 0 56467 38700.00000 0 -23365493.003 9986320.883 -2166183.338 10 0 56467 39600.00000 0 -23387029.606 10119525.338 1030214.045 10 0 56467 40500.00000 0 -23047932.891 10078428.293 4206585.264 10 0 56467 41400.00000 0 -22379259.655 9818318.744 7301198.557 10 0 56467 42300.00000 0 -21422414.639 9302571.289 10253932.005 10 0 56467 43200.00000 0 -20227336.562 8504438.744 13007443.742 10 0 56467 44100.00000 0 -18850346.202 7408433.456 15508285.781 10 0 56467 45000.00000 0 -17351747.823 6011238.471 17707939.659 10 0 56467 45900.00000 0 -15793285.207 4322109.608 19563754.053 10 0 56467 46800.00000 0 -14235559.342 2362750.923 21039766.615 10 0 56467 47700.00000 0 -12735515.916 166668.189 22107394.759 10 0 56467 48600.00000 0 -11344107.464 -2221973.315 22745982.815 10 0 56467 49500.00000 0 -10104227.236 -4749939.917 22943195.837 10 0 56467 50400.00000 0 -9049000.340 -7356904.111 22695253.130 10 0 56467 51300.00000 0 -8200502.509 -9977721.489 22006997.611 10 0 56467 52200.00000 0 -7568958.957 -12544916.538 20891799.998 10 0 56467 53100.00000 0 -7152455.833 -14991275.035 19371299.754 10 0 56467 54000.00000 0 -6937175.392 -17252436.502 17474987.639 10 0 56467 54900.00000 0 -6898144.298 -19269379.982 15239637.500 10 0 56467 55800.00000 0 -7000463.114 -20990700.551 12708597.769 10 0 56467 56700.00000 0 -7200964.922 -22374582.568 9930955.757 10 0 56467 57600.00000 0 -7450233.039 -23390387.922 6960590.263 10 0 56467 58500.00000 0 -7694892.632 -24019793.335 3855130.393 10 0 56467 59400.00000 0 -7880079.387 -24257429.454 674840.402 10 0 56467 60300.00000 0 -7951980.722 -24110995.110 -2518548.067 10 0 56467 61200.00000 0 -7860341.793 -23600842.021 -5663033.577 10 0 56467 62100.00000 0 -7560829.839 -22759047.430 -8697548.993 10 0 56467 63000.00000 0 -7017156.149 -21628013.627 -11563148.479 10 0 56467 63900.00000 0 -6202865.108 -20258653.214 -14204153.949 10 0 56467 64800.00000 0 -5102713.641 -18708236.398 -16569238.520 10 0 56467 65700.00000 0 -3713581.556 -17037990.679 -18612425.694 10 0 56467 66600.00000 0 -2044873.073 -15310553.782 -20293984.698 10 0 56467 67500.00000 0 -118391.078 -13587386.588 -21581204.596 10 0 56467 68400.00000 0 2032312.227 -11926254.449 -22449032.172 10 0 56467 69300.00000 0 4363082.569 -10378882.294 -22880561.223 10 0 56467 70200.00000 0 6820762.291 -8988881.493 -22867363.801 10 0 56467 71100.00000 0 9345175.087 -7790034.930 -22409656.969 10 0 56467 72000.00000 0 11871415.061 -6805011.773 -21516301.635 10 0 56467 72900.00000 0 14332345.625 -6044565.263 -20204633.303 10 0 56467 73800.00000 0 16661204.818 -5507246.576 -18500127.670 10 0 56467 74700.00000 0 18794208.794 -5179646.212 -16435907.196 10 0 56467 75600.00000 0 20673045.203 -5037151.964 -14052097.915 10 0 56467 76500.00000 0 22247152.506 -5045190.846 -11395048.647 10 0 56467 77400.00000 0 23475689.965 -5160901.769 -8516427.754 10 0 56467 78300.00000 0 24329115.967 -5335167.472 -5472215.029 10 0 56467 79200.00000 0 24790308.701 -5514918.858 -2321608.581 10 0 56467 80100.00000 0 24855182.440 -5645613.313 874131.481 10 0 56467 81000.00000 0 24532773.987 -5673781.118 4052879.470 10 0 56467 81900.00000 0 23844796.276 -5549531.171 7152856.741 10 0 56467 82800.00000 0 22824678.629 -5228909.078 10113836.120 10 0 56467 83700.00000 0 21516134.829 -4676007.037 12878314.236 10 0 56467 84600.00000 0 19971319.992 -3864735.586 15392628.630 10 0 56467 85500.00000 0 18248654.373 -2780181.808 17607997.708 10 0 56468 0.00000 0 16410405.964 -1419496.250 19481463.605 10 0 56468 900.00000 0 14520133.446 207729.829 20976720.239 10 0 56468 1800.00000 0 12640096.429 2079612.028 22064810.688 10 0 56468 2700.00000 0 10828741.393 4162641.625 22724681.777 10 0 56468 3600.00000 0 9138366.874 6412846.652 22943585.588 10 0 56468 4500.00000 0 7613065.209 8777398.719 22717320.937 10 0 56468 5400.00000 0 6287025.201 11196599.173 22050310.803 10 0 56468 6300.00000 0 5183265.378 13606163.120 20955514.548 10 0 56468 7200.00000 0 4312849.511 15939707.259 19454176.717 10 0 56468 8100.00000 0 3674615.929 18131339.126 17575417.136 10 0 56468 9000.00000 0 3255430.880 20118241.009 15355669.802 10 0 56468 9900.00000 0 3030954.440 21843141.701 12837980.914 10 0 56468 10800.00000 0 2966886.103 23256573.793 10071178.991 10 0 56468 11700.00000 0 3020637.125 24318822.787 7108932.491 10 0 56468 12600.00000 0 3143358.830 25001486.841 4008712.755 10 0 56468 13500.00000 0 3282240.984 25288582.032 830681.938 10 0 56468 14400.00000 0 3382982.874 25177146.811 -2363472.682 10 0 56468 15300.00000 0 3392332.316 24677320.159 -5511735.373 10 0 56468 16200.00000 0 3260584.728 23811889.990 -8552966.243 10 0 56468 17100.00000 0 2943935.986 22615330.524 -11428089.585 10 0 56468 18000.00000 0 2406588.792 21132368.826 -14081242.823 10 0 56468 18900.00000 0 1622522.593 19416140.490 -16460863.516 10 0 56468 19800.00000 0 576851.181 17526011.617 -18520693.130 10 0 56468 20700.00000 0 -733290.511 15525158.281 -20220677.864 10 0 56468 21600.00000 0 -2298369.208 13478004.687 -21527749.050 10 0 56468 22500.00000 0 -4096603.025 11447627.026 -22416467.997 10 0 56468 23400.00000 0 -6094633.362 9493231.447 -22869522.756 10 0 56468 24300.00000 0 -8248692.291 7667811.205 -22878067.227 10 0 56468 25200.00000 0 -10506218.042 6016080.527 -22441895.996 10 0 56468 26100.00000 0 -12807852.226 4572771.089 -21569451.342 10 0 56468 27000.00000 0 -15089736.420 3361361.722 -20277662.117 10 0 56468 27900.00000 0 -17286013.081 2393293.797 -18591617.228 10 0 56468 28800.00000 0 -19331426.771 1667704.416 -16544079.776 10 0 56468 29700.00000 0 -21163917.411 1171687.708 -14174850.905 10 0 56468 30600.00000 0 -22727097.244 881072.259 -11529995.426 10 0 56468 31500.00000 0 -23972507.765 761680.968 -8660944.187 10 0 56468 32400.00000 0 -24861562.007 771019.111 -5623490.679 10 0 56468 33300.00000 0 -25367090.638 860318.195 -2476701.607 10 0 56468 34200.00000 0 -25474426.927 976848.106 718236.813 10 0 56468 35100.00000 0 -25181985.125 1066398.575 3899213.851 10 0 56468 36000.00000 0 -24501308.226 1075823.855 7004406.604 10 0 56468 36900.00000 0 -23456583.513 955541.903 9973485.367 10 0 56468 37800.00000 0 -22083646.795 661881.431 12748788.047 10 0 56468 38700.00000 0 -20428517.747 159176.778 15276440.463 10 0 56468 39600.00000 0 -18545528.380 -578478.478 17507400.551 10 0 56468 40500.00000 0 -16495123.592 -1565893.703 19398406.413 10 0 56468 41400.00000 0 -14341426.057 -2805916.042 20912810.269 10 0 56468 42300.00000 0 -12149667.379 -4289074.724 22021282.715 10 0 56468 43200.00000 0 -9983592.405 -5993750.338 22702374.488 10 0 56468 44100.00000 0 -7902944.378 -7886862.623 22942925.672 10 0 56468 45000.00000 0 -5961134.889 -9925048.755 22738315.161 10 0 56468 45900.00000 0 -4203194.553 -12056283.799 22092546.179 10 0 56468 46800.00000 0 -2664088.453 -14221876.711 21018166.560 10 0 56468 47700.00000 0 -1367465.268 -16358759.685 19536025.438 10 0 56468 48600.00000 0 -324890.822 -18401976.421 17674870.914 10 0 56468 49500.00000 0 464403.219 -20287266.617 15470796.073 10 0 56468 50400.00000 0 1013246.106 -21953639.617 12966543.549 10 0 56468 51300.00000 0 1345742.695 -23345830.516 10210681.504 10 0 56468 52200.00000 0 1496009.842 -24416536.529 7256666.283 10 0 56468 53100.00000 0 1506488.249 -25128340.274 4161809.488 10 0 56468 54000.00000 0 1425901.441 -25455239.480 986169.060 10 0 56468 54900.00000 0 1306948.406 -25383718.821 -2208614.366 10 0 56468 55800.00000 0 1203827.787 -24913318.568 -5360513.165 10 0 56468 56700.00000 0 1169698.743 -24056675.807 -8408317.227 10 0 56468 57600.00000 0 1254186.395 -22839035.987 -11292823.634 10 0 56468 58500.00000 0 1501038.014 -21297254.834 -13957988.052 10 0 56468 59400.00000 0 1946029.787 -19478332.061 -16352015.255 10 0 56468 60300.00000 0 2615213.568 -17437537.859 -18428367.386 10 0 56468 61200.00000 0 3523578.615 -15236210.330 -20146670.190 10 0 56468 62100.00000 0 4674185.939 -12939315.651 -21473499.618 10 0 56468 63000.00000 0 6057813.035 -10612872.562 -22383033.531 10 0 56468 63900.00000 0 7653125.221 -8321348.497 -22857555.898 10 0 56468 64800.00000 0 9427367.828 -6125135.575 -22887803.735 10 0 56468 65700.00000 0 11337551.572 -4078211.305 -22473150.009 10 0 56468 66600.00000 0 13332082.624 -2226081.123 -21621618.846 10 0 56468 67500.00000 0 15352770.280 -604087.983 -20349732.512 10 0 56468 68400.00000 0 17337129.071 763841.149 -18682192.809 10 0 56468 69300.00000 0 19220879.556 1865960.256 -16651402.751 10 0 56468 70200.00000 0 20940543.495 2702949.635 -14296837.430 10 0 56468 71100.00000 0 22436024.865 3287632.428 -11664276.026 10 0 56468 72000.00000 0 23653068.395 3644175.333 -8804909.781 10 0 56468 72900.00000 0 24545492.324 3806808.370 -5774343.333 10 0 56468 73800.00000 0 25077101.374 3818118.979 -2631509.044 10 0 56468 74700.00000 0 25223199.282 3726993.679 562484.025 10 0 56468 75600.00000 0 24971637.159 3586295.628 3745543.546 10 0 56468 76500.00000 0 24323353.530 3450377.504 6855805.890 10 0 56468 77400.00000 0 23292383.447 3372536.013 9832842.290 10 0 56468 78300.00000 0 21905336.517 3402516.733 12618835.250 10 0 56468 79200.00000 0 20200366.057 3584175.589 15159701.948 10 0 56468 80100.00000 0 18225672.989 3953396.426 17406142.609 10 0 56468 81000.00000 0 16037607.467 4536353.043 19314593.691 10 0 56468 81900.00000 0 13698447.758 5348189.353 20848067.801 10 0 56468 82800.00000 0 11273949.228 6392173.535 21976864.643 10 0 56468 83700.00000 0 8830765.349 7659362.035 22679140.027 10 0 56468 84600.00000 0 6433847.594 9128787.987 22941322.755 10 0 56468 85500.00000 0 4143931.686 10768166.612 22758372.023 10 0 56469 0.00000 0 2015213.653 12535088.754 22133871.049 10 0 56469 900.00000 0 93311.115 14378653.673 21079955.329 10 0 56469 1800.00000 0 -1586407.025 16241473.182 19617077.380 10 0 56469 2700.00000 0 -3000053.566 18061965.098 17773611.929 10 0 56469 3600.00000 0 -4135969.874 19776840.625 15585309.148 10 0 56469 4500.00000 0 -4994955.675 21323682.672 13094605.848 10 0 56469 5400.00000 0 -5589973.877 22643507.969 10349807.366 10 0 56469 6300.00000 0 -5945343.639 23683206.195 7404155.339 10 0 56469 7200.00000 0 -6095456.379 24397754.130 4314798.957 10 0 56469 8100.00000 0 -6083069.445 24752111.978 1141689.228 10 0 56469 9000.00000 0 -5957249.937 24722722.033 -2053582.559 10 0 56469 9900.00000 0 -5771055.904 24298546.303 -5208979.544 10 0 56469 10800.00000 0 -5579053.380 23481598.926 -8263223.948 10 0 56469 11700.00000 0 -5434774.703 22286950.319 -11156988.038 10 0 56469 12600.00000 0 -5388226.097 20742202.148 -13834047.929 10 0 56469 13500.00000 0 -5483550.536 18886454.441 -16242377.589 10 0 56469 14400.00000 0 -5756945.364 16768807.367 -18335161.591 10 0 56469 15300.00000 0 -6234923.392 14446459.833 -20071706.751 10 0 56469 16200.00000 0 -6932991.782 11982483.784 -21418234.927 10 0 56469 17100.00000 0 -7854805.404 9443366.606 -22348541.617 10 0 56469 18000.00000 0 -8991831.397 6896423.720 -22844507.553 10 0 56469 18900.00000 0 -10323540.178 4407188.721 -22896453.445 10 0 56469 19800.00000 0 -11818116.070 2036889.253 -22503330.934 10 0 56469 20700.00000 0 -13433658.760 -159886.700 -21672745.931 10 0 56469 21600.00000 0 -15119826.249 -2137237.530 -20420813.688 10 0 56469 22500.00000 0 -16819851.235 -3859623.089 -18771848.094 10 0 56469 23400.00000 0 -18472846.956 -5303098.991 -16757890.891 10 0 56469 24300.00000 0 -20016306.229 -6456059.458 -14418089.606 10 0 56469 25200.00000 0 -21388688.939 -7319458.680 -11797935.989 10 0 56469 26100.00000 0 -22531989.246 -7906502.477 -8948379.647 10 0 56469 27000.00000 0 -23394174.395 -8241824.498 -5924834.161 10 0 56469 27900.00000 0 -23931392.206 -8360182.961 -2786095.189 10 0 56469 28800.00000 0 -24109853.945 -8304734.205 406807.860 10 0 56469 29700.00000 0 -23907312.941 -8124957.331 3591803.680 10 0 56469 30600.00000 0 -23314076.376 -7874318.926 6706990.642 10 0 56469 31500.00000 0 -22333507.490 -7607777.808 9691843.726 10 0 56469 32400.00000 0 -20981996.995 -7379236.369 12488392.857 10 0 56469 33300.00000 0 -19288404.900 -7239047.122 15042349.332 10 0 56469 34200.00000 0 -17292996.293 -7231680.448 17304158.276 10 0 56469 35100.00000 0 -15045915.720 -7393652.454 19229956.855 10 0 56469 36000.00000 0 -12605264.002 -7751800.582 20782420.069 10 0 56469 36900.00000 0 -10034857.664 -8321979.738 21931478.311 10 0 56469 37800.00000 0 -7401764.116 -9108233.900 22654893.585 10 0 56469 38700.00000 0 -4773714.540 -10102478.115 22938684.046 10 0 56469 39600.00000 0 -2216501.403 -11284704.451 22777389.378 10 0 56469 40500.00000 0 208532.340 -12623703.614 22174172.510 10 0 56469 41400.00000 0 2446809.301 -14078272.566 21140756.084 10 0 56469 42300.00000 0 4452543.970 -15598858.178 19697195.019 10 0 56469 43200.00000 0 6190396.508 -17129568.938 17871489.461 10 0 56469 44100.00000 0 7636686.587 -18610471.287 15699045.203 10 0 56469 45000.00000 0 8780117.945 -19980075.168 13221991.511 10 0 56469 45900.00000 0 9621984.677 -21177905.311 10488368.961 10 0 56469 46800.00000 0 10175851.689 -22147050.906 7551202.339 10 0 56469 47700.00000 0 10466723.632 -22836586.903 4467476.118 10 0 56469 48600.00000 0 10529738.003 -23203765.243 1297031.946 10 0 56469 49500.00000 0 10408438.088 -23215883.680 -1898590.729 10 0 56469 50400.00000 0 10152699.068 -22851753.121 -5057348.344 10 0 56469 51300.00000 0 9816395.312 -22102701.078 -8117897.971 10 0 56469 52200.00000 0 9454907.841 -20973068.193 -11020789.553 10 0 56469 53100.00000 0 9122577.746 -19480176.037 -13709622.078 10 0 56469 54000.00000 0 8870213.670 -17653766.555 -16132141.039 10 0 56469 54900.00000 0 8742759.191 -15534935.639 -18241255.624 10 0 56469 55800.00000 0 8777219.192 -13174604.630 -19995955.710 10 0 56469 56700.00000 0 9000933.362 -10631592.751 -21362110.804 10 0 56469 57600.00000 0 9430270.359 -7970370.177 -22313135.455 10 0 56469 58500.00000 0 10069798.385 -5258584.776 -22830508.240 10 0 56469 59400.00000 0 10911967.951 -2564464.908 -22904134.277 10 0 56469 60300.00000 0 11937321.012 45794.268 -22532544.225 10 0 56469 61200.00000 0 13115218.546 2510552.696 -21722925.785 10 0 56469 62100.00000 0 14405056.798 4775051.229 -20490986.875 10 0 56469 63000.00000 0 15757921.846 6793445.171 -18860652.821 10 0 56469 63900.00000 0 17118613.445 8530461.399 -16863603.129 10 0 56469 64800.00000 0 18427953.529 9962610.794 -14538656.463 10 0 56469 65700.00000 0 19625282.422 11078906.195 -11931015.492 10 0 56469 66600.00000 0 20651037.655 11881056.814 -9091386.184 10 0 56469 67500.00000 0 21449306.578 12383132.146 -6074988.701 10 0 56469 68400.00000 0 21970244.836 12610710.782 -2940479.320 10 0 56469 69300.00000 0 22172258.269 12599551.281 251195.121 10 0 56469 70200.00000 0 22023855.744 12393842.541 3437987.427 10 0 56469 71100.00000 0 21505094.323 12044108.883 6557961.119 10 0 56469 72000.00000 0 20608555.436 11604859.581 9550498.041 10 0 56469 72900.00000 0 19339810.636 11132083.302 12357478.530 10 0 56469 73800.00000 0 17717357.075 10680694.210 14924410.814 10 0 56469 74700.00000 0 15772025.263 10302038.295 17201487.479 10 0 56469 75600.00000 0 13545883.776 10041565.584 19144548.665 10 0 56469 76500.00000 0 11090686.526 9936766.569 20715933.710 10 0 56469 77400.00000 0 8465927.237 10015459.805 21885205.275 10 0 56469 78300.00000 0 5736581.789 10294502.554 22629732.726 10 0 56469 79200.00000 0 2970631.798 10778978.536 22935124.297 10 0 56469 80100.00000 0 236471.624 11461896.727 22795500.385 10 0 56469 81000.00000 0 -2399694.483 12324413.842 22213603.370 10 0 56469 81900.00000 0 -4876358.265 13336571.301 21200742.170 10 0 56469 82800.00000 0 -7139013.517 14458516.086 19776572.792 10 0 56469 83700.00000 0 -9142167.926 15642154.776 17968718.986 10 0 56469 84600.00000 0 -10850978.423 16833171.997 15812239.948 10 0 56469 85500.00000 0 -12242443.154 17973329.222 13348954.890 10 0 56470 0.00000 0 -13306101.660 19002948.007 10626636.975 10 0 56470 900.00000 0 -14044214.942 19863473.729 7698091.203 10 0 56470 1800.00000 0 -14471419.135 20500012.717 4620134.556 10 0 56470 2700.00000 0 -14613867.421 20863735.208 1452496.519 10 0 56470 3600.00000 0 -14507897.796 20914043.863 -1743338.024 10 0 56470 4500.00000 0 -14198282.618 20620415.179 -4905321.423 10 0 56470 5400.00000 0 -13736134.566 19963835.975 -7972048.087 10 0 56470 6300.00000 0 -13176557.685 18937773.399 -10883947.947 10 0 56470 7200.00000 0 -12576143.104 17548636.648 -13584444.985 10 0 56470 8100.00000 0 -11990415.557 15815709.812 -16021058.093 10 0 56470 9000.00000 0 -11471338.905 13770557.425 -18146422.705 10 0 56470 9900.00000 0 -11064986.328 11455926.508 -19919213.103 10 0 56470 10800.00000 0 -10809473.885 8924189.866 -21304947.515 10 0 56470 11700.00000 0 -10733244.977 6235394.590 -22276660.358 10 0 56470 12600.00000 0 -10853778.450 3454996.279 -22815428.578 10 0 56470 13500.00000 0 -11176775.197 651372.479 -22910741.953 10 0 56470 14400.00000 0 -11695858.031 -2106781.932 -22560710.120 10 0 56470 15300.00000 0 -12392797.939 -4753069.677 -21772102.204 10 0 56470 16200.00000 0 -13238257.736 -7225908.224 -20560218.088 10 0 56470 17100.00000 0 -14193022.275 -9470845.029 -18948593.514 10 0 56470 18000.00000 0 -15209663.833 -11442575.018 -16968544.402 10 0 56470 18900.00000 0 -16234572.789 -13106576.885 -14658558.930 10 0 56470 19800.00000 0 -17210268.177 -14440300.684 -12063548.823 10 0 56470 20700.00000 0 -18077890.582 -15433857.810 -9233974.367 10 0 56470 21600.00000 0 -18779772.010 -16090185.523 -6224860.121 10 0 56470 22500.00000 0 -19261973.833 -16424680.211 -3094720.695 10 0 56470 23400.00000 0 -19476685.131 -16464316.029 95582.031 10 0 56470 24300.00000 0 -19384379.568 -16246287.347 3284027.450 10 0 56470 25200.00000 0 -18955639.106 -15816233.584 6408646.790 10 0 56470 26100.00000 0 -18172567.049 -15226122.588 9408731.384 10 0 56470 27000.00000 0 -17029730.307 -14531883.085 12226014.628 10 0 56470 27900.00000 0 -15534590.733 -13790887.111 14805804.276 10 0 56470 28800.00000 0 -13707407.055 -13059389.396 17098042.844 10 0 56470 29700.00000 0 -11580611.123 -12390032.127 19058275.698 10 0 56470 30600.00000 0 -9197684.205 -11829520.425 20648508.447 10 0 56470 31500.00000 0 -6611579.926 -11416566.279 21837937.568 10 0 56470 32400.00000 0 -3882759.058 -11180187.143 22603540.904 10 0 56470 33300.00000 0 -1076917.298 -11138430.229 22930517.426 10 0 56470 34200.00000 0 1737500.270 -11297575.628 22812568.464 10 0 56470 35100.00000 0 4491895.789 -11651851.285 22252015.629 10 0 56470 36000.00000 0 7120119.740 -12183671.481 21259753.524 10 0 56470 36900.00000 0 9560969.708 -12864388.727 19855038.304 10 0 56470 37800.00000 0 11760484.374 -13655527.591 18065116.066 10 0 56470 38700.00000 0 13673938.727 -14510448.912 15924697.860 10 0 56470 39600.00000 0 15267458.602 -15376374.875 13475291.004 10 0 56470 40500.00000 0 16519188.410 -16196690.216 10764399.010 10 0 56470 41400.00000 0 17419964.366 -16913423.155 7844604.955 10 0 56470 42300.00000 0 17973465.813 -17469801.826 4772555.595 10 0 56470 43200.00000 0 18195839.097 -17812778.603 1607865.470 10 0 56470 44100.00000 0 18114810.398 -17895415.717 -1588037.999 10 0 56470 45000.00000 0 17768325.270 -17679031.168 -4753105.979 10 0 56470 45900.00000 0 17202772.648 -17135013.766 -7825873.062 10 0 56470 46800.00000 0 16470868.529 -16246229.866 -10746651.879 10 0 56470 47700.00000 0 15629288.857 -15007961.443 -13458693.924 10 0 56470 48600.00000 0 14736151.811 -13428334.773 -15909293.793 10 0 56470 49500.00000 0 13848455.900 -11528220.322 -18050815.195 10 0 56470 50400.00000 0 13019582.173 -9340606.709 -19841618.585 10 0 56470 51300.00000 0 12296966.036 -6909473.577 -21246872.348 10 0 56470 52200.00000 0 11720036.933 -4288209.148 -22239231.855 10 0 56470 53100.00000 0 11318512.835 -1537637.426 -22799373.150 10 0 56470 54000.00000 0 11111121.484 1276263.878 -22916371.012 10 0 56470 54900.00000 0 11104802.348 4084860.618 -22587914.021 10 0 56470 55800.00000 0 11294423.022 6819471.509 -21820352.342 10 0 56470 56700.00000 0 11663022.175 9413981.670 -20628577.101 10 0 56470 57600.00000 0 12182568.933 11807352.278 -19035733.416 10 0 56470 58500.00000 0 12815206.823 13945922.340 -17072772.295 10 0 56470 59400.00000 0 13514929.882 15785407.246 -14777849.794 10 0 56470 60300.00000 0 14229620.147 17292511.283 -12195584.783 10 0 56470 61200.00000 0 14903360.359 18446087.296 -9376189.651 10 0 56470 62100.00000 0 15478923.837 19237795.769 -6374490.874 10 0 56470 63000.00000 0 15900335.832 19672236.548 -3248858.662 10 0 56470 63900.00000 0 16115397.508 19766548.724 -60067.028 10 0 56470 64800.00000 0 16078065.145 19549496.637 3129893.016 10 0 56470 65700.00000 0 15750583.306 19060081.731 6259023.433 10 0 56470 66600.00000 0 15105281.158 18345739.969 9266527.994 10 0 56470 67500.00000 0 14125955.455 17460201.978 12093995.960 10 0 56470 68400.00000 0 12808781.277 16461107.127 14686537.207 10 0 56470 69300.00000 0 11162711.646 15407472.907 16993846.522 10 0 56470 70200.00000 0 9209348.732 14357126.719 18971176.550 10 0 56470 71100.00000 0 6982291.458 13364208.356 20580200.909 10 0 56470 72000.00000 0 4525986.323 12476848.109 21789751.281 10 0 56470 72900.00000 0 1894128.743 11735117.690 22576414.985 10 0 56470 73800.00000 0 -852319.264 11169339.373 22924982.301 10 0 56470 74700.00000 0 -3647413.345 10798823.602 22828735.575 10 0 56470 75600.00000 0 -6422719.198 10631087.242 22289575.237 10 0 56470 76500.00000 0 -9109910.686 10661584.588 21317980.619 10 0 56470 77400.00000 0 -11643366.959 10873961.833 19932806.540 10 0 56470 78300.00000 0 -13962662.005 11240823.995 18160919.458 10 0 56470 79200.00000 0 -16014844.412 11724981.902 16036679.864 10 0 56470 80100.00000 0 -17756413.548 12281126.885 13601280.432 10 0 56470 81000.00000 0 -19154910.921 12857862.865 10901952.103 10 0 56470 81900.00000 0 -20190061.215 13400010.480 7991052.825 10 0 56470 82800.00000 0 -20854415.979 13851086.314 4925056.097 10 0 56470 83700.00000 0 -21153473.663 14155852.713 1763458.499 10 0 56470 84600.00000 0 -21105271.462 14262830.439 -1432372.894 10 0 56470 85500.00000 0 -20739466.426 14126667.748 -4600390.790 99